Marshalltown, IA

9:59 AM CDT on April 25, 2017 (GMT -0500)
Marshalltown Municipal

Weather History for KMIW - April, 2013

Change the Weather History Date:

Friday, April 5, 2013

  Actual Average Record
Temperature  
Mean Temperature 44 °F 45 °F  
Max Temperature 57 °F 57 °F 73 °F (2005)
Min Temperature 30 °F 34 °F 19 °F (2002)
Degree Days  
Heating Degree Days 21 20  
Month to date heating degree days 143 103  
Since 1 July heating degree days 6289 6404  
Cooling Degree Days 0 0  
Month to date cooling degree days 0 0  
Year to date cooling degree days 0 0  
Moisture  
Dew Point 28 °F    
Average Humidity 64    
Maximum Humidity 92    
Minimum Humidity 35    
Precipitation  
Precipitation 0.00 in 0.07 in 0.46 in (1999)
Month to date precipitation 0.00 0.33  
Sea Level Pressure  
Sea Level Pressure 30.09 in    
Wind  
Wind Speed 11 mph (East)    
Max Wind Speed 22 mph    
Max Gust Speed 26 mph    
Visibility 10 miles    
Events      
T = Trace of Precipitation, MM = Missing Value Source: NWS Daily Summary

Daily Weather History Graph

Daily Weather History Graph

Search for Another Location

Airport or City:

Trip Planner

Search our weather history database for the weather conditions in past years. The results will help you decide how hot, cold, wet, or windy it might be!

Date:

Astronomy

Apr. 05, 2013 Rise Set
Actual Time 6:47 AM CDT 7:42 PM CDT
Civil Twilight 6:18 AM CDT 8:10 PM CDT
Nautical Twilight 5:44 AM CDT 8:44 PM CDT
Astronomical Twilight 5:09 AM CDT 9:19 PM CDT
Moon 3:59 AM CDT (4/5) 3:02 PM CDT (4/5)
Length of Visible Light 13h 51m
Length of Day
12h 55m
Waning Crescent, 23% of the Moon is Illuminated
Apr 5
Waning Crescent
Apr 10
New
Apr 18
First Quarter
Apr 25
Full
May 2
Last Quarter

Hourly Weather History & Observations

Time (CDT) Temp. Windchill Dew Point Humidity Pressure Visibility Wind Dir Wind Speed Gust Speed Precip Events Conditions
12:53 AM 35.1 °F 28.6 °F 30.0 °F 82% 30.14 in 10.0 mi NNW 8.1 mph - N/A   Clear
1:53 AM 34.0 °F 27.2 °F 28.9 °F 82% 30.15 in 10.0 mi NNW 8.1 mph - N/A   Scattered Clouds
2:53 AM 32.0 °F 25.6 °F 28.0 °F 85% 30.15 in 10.0 mi North 6.9 mph - N/A   Partly Cloudy
3:53 AM 32.0 °F 25.6 °F 28.0 °F 85% 30.17 in 10.0 mi NNW 6.9 mph - N/A   Mostly Cloudy
4:53 AM 30.9 °F 25.2 °F 28.0 °F 89% 30.18 in 10.0 mi North 5.8 mph - N/A   Mostly Cloudy
5:53 AM 30.9 °F 26.2 °F 28.0 °F 89% 30.19 in 10.0 mi NNE 4.6 mph - N/A   Mostly Cloudy
6:53 AM 30.0 °F 24.1 °F 27.0 °F 88% 30.20 in 10.0 mi NNE 5.8 mph - N/A   Mostly Cloudy
7:53 AM 34.0 °F 29.8 °F 28.0 °F 79% 30.21 in 10.0 mi NE 4.6 mph - N/A   Mostly Cloudy
8:53 AM 37.9 °F 30.9 °F 28.0 °F 68% 30.21 in 10.0 mi East 10.4 mph - N/A   Clear
9:53 AM 42.1 °F 35.2 °F 28.0 °F 58% 30.21 in 10.0 mi East 12.7 mph - N/A   Clear
10:53 AM 46.0 °F 40.6 °F 28.0 °F 50% 30.18 in 10.0 mi SE 11.5 mph - N/A   Clear
11:53 AM 48.9 °F - 25.0 °F 39% 30.18 in 10.0 mi ESE 8.1 mph - N/A   Clear
12:53 PM 51.1 °F - 26.1 °F 38% 30.17 in 10.0 mi SSE 12.7 mph - N/A   Partly Cloudy
1:53 PM 53.1 °F - 27.0 °F 37% 30.12 in 10.0 mi SE 12.7 mph - N/A   Partly Cloudy
2:53 PM 53.1 °F - 27.0 °F 37% 30.10 in 10.0 mi SE 10.4 mph - N/A   Partly Cloudy
3:53 PM 55.0 °F - 28.0 °F 35% 30.06 in 10.0 mi SE 12.7 mph - N/A   Clear
4:53 PM 55.9 °F - 28.9 °F 36% 30.03 in 10.0 mi SE 15.0 mph - N/A   Clear
5:53 PM 55.0 °F - 28.9 °F 37% 29.99 in 10.0 mi SE 16.1 mph - N/A   Clear
6:53 PM 53.1 °F - 30.0 °F 41% 29.98 in 10.0 mi ESE 12.7 mph - N/A   Clear
7:53 PM 48.0 °F - 30.0 °F 50% 29.96 in 10.0 mi ESE 12.7 mph - N/A   Clear
8:53 PM 48.0 °F - 28.0 °F 46% 29.94 in 10.0 mi ESE 12.7 mph - N/A   Clear
9:53 PM 48.9 °F - 28.0 °F 44% 29.93 in 10.0 mi ESE 15.0 mph - N/A   Clear
10:53 PM 48.9 °F - 28.0 °F 44% 29.90 in 10.0 mi SE 19.6 mph 26.5 mph N/A   Clear
11:53 PM 48.0 °F - 28.9 °F 48% 29.87 in 10.0 mi SE 17.3 mph - N/A   Clear